Beckley, WV

3:40 AM EDT on September 16, 2019 (GMT -0400)
Raleigh County Memorial

Weather History for KBKW - July, 2019

Change the Weather History Date:

Wednesday, July 24, 2019

  Actual Average Record
Temperature  
Mean Temperature 62 °F 71 °F  
Max Temperature 73 °F 80 °F 92 °F (1934)
Min Temperature 52 °F 61 °F 45 °F (1954)
Degree Days  
Heating Degree Days 2 0  
Month to date heating degree days 0  
Since 1 June heating degree days 39  
Since 1 July heating degree days 0  
Cooling Degree Days 0 6  
Month to date cooling degree days 144  
Year to date cooling degree days 296  
Since 1 June cooling degree days 255  
Growing Degree Days 12 (Base 50)    
Moisture  
Dew Point 51 °F    
Average Humidity 67    
Maximum Humidity 93    
Minimum Humidity 31    
Precipitation  
Precipitation 0.00 in 0.17 in 1.22 in (2018)
Month to date precipitation 3.85  
Year to date precipitation 25.01  
Sea Level Pressure  
Sea Level Pressure 30.06 in    
Wind  
Wind Speed 3 mph (North)    
Max Wind Speed 14 mph    
Max Gust Speed 17 mph    
Visibility 10 miles    
Events      
T = Trace of Precipitation, MM = Missing Value Source: NWS Daily Summary

Daily Weather History Graph

Daily Weather History Graph

Search for Another Location

Airport or City:

Astronomy

Jul. 24, 2019 Rise Set
Actual Time 6:21 AM EDT 8:40 PM EDT
Civil Twilight 5:51 AM EDT 9:10 PM EDT
Nautical Twilight 5:14 AM EDT 9:46 PM EDT
Astronomical Twilight 4:34 AM EDT 10:26 PM EDT
Moon 12:34 AM EDT (7/24) 1:23 PM EDT (7/24)
Length of Visible Light 15h 18m
Length of Day
14h 19m
Waning Gibbous, 54% of the Moon is Illuminated
Jul 24
Waning Gibbous
Jul 24
Last Quarter
Jul 31
New
Aug 7
First Quarter
Aug 15
Full

Hourly Weather History & Observations

Time (EDT) Temp. Dew Point Humidity Pressure Visibility Wind Dir Wind Speed Gust Speed Precip Events Conditions
12:51 AM 55.0 °F 52.0 °F 89% 30.03 in 10.0 mi Calm Calm - N/A   Clear
1:51 AM 54.0 °F 51.1 °F 90% 30.02 in 10.0 mi Calm Calm - N/A   Clear
2:51 AM 54.0 °F 51.1 °F 90% 30.01 in 10.0 mi Calm Calm - N/A   Clear
3:51 AM 53.1 °F 50.0 °F 89% 30.00 in 10.0 mi Calm Calm - N/A   Clear
4:51 AM 52.0 °F 50.0 °F 93% 30.01 in 10.0 mi Calm Calm - N/A   Clear
5:51 AM 52.0 °F 50.0 °F 93% 30.03 in 10.0 mi Calm Calm - N/A   Clear
6:51 AM 53.1 °F 50.0 °F 89% 30.04 in 10.0 mi SSE 3.5 mph - N/A   Clear
7:51 AM 57.0 °F 53.1 °F 87% 30.06 in 10.0 mi Calm Calm - N/A   Clear
8:51 AM 62.1 °F 53.1 °F 72% 30.07 in 10.0 mi Calm Calm - N/A   Clear
9:51 AM 66.0 °F 53.1 °F 63% 30.07 in 10.0 mi Calm Calm - N/A   Clear
10:51 AM 68.0 °F 50.0 °F 52% 30.07 in 10.0 mi North 9.2 mph - N/A   Clear
11:51 AM 69.1 °F 46.9 °F 45% 30.08 in 10.0 mi North 9.2 mph - N/A   Clear
12:51 PM 71.1 °F 46.9 °F 42% 30.07 in 10.0 mi North 13.8 mph - N/A   Clear
1:51 PM 72.0 °F 48.0 °F 43% 30.06 in 10.0 mi NNW 11.5 mph 17.3 mph N/A   Clear
2:51 PM 72.0 °F 48.9 °F 44% 30.06 in 10.0 mi North 11.5 mph - N/A   Clear
3:51 PM 72.0 °F 50.0 °F 46% 30.06 in 10.0 mi North 10.4 mph - N/A   Mostly Cloudy
4:51 PM 73.0 °F 50.0 °F 44% 30.05 in 10.0 mi North 8.1 mph - N/A   Partly Cloudy
5:51 PM 73.0 °F 50.0 °F 44% 30.06 in 10.0 mi NNW 10.4 mph - N/A   Mostly Cloudy
6:51 PM 71.1 °F 53.1 °F 53% 30.07 in 10.0 mi NNW 9.2 mph - N/A   Scattered Clouds
7:51 PM 68.0 °F 53.1 °F 59% 30.08 in 10.0 mi North 6.9 mph - N/A   Clear
8:51 PM 66.0 °F 53.1 °F 63% 30.09 in 10.0 mi Calm Calm - N/A   Clear
9:51 PM 63.0 °F 53.1 °F 70% 30.10 in 10.0 mi Calm Calm - N/A   Clear
10:51 PM 59.0 °F 52.0 °F 78% 30.11 in 10.0 mi Calm Calm - N/A   Clear
11:51 PM 59.0 °F 53.1 °F 81% 30.11 in 10.0 mi Calm Calm - N/A   Clear